| time (UTC) | temp C | wind direction | speed KPH | gust KPH | rain 1hr cm | rain 24hr cm | rain mn cm | humidity % | barometer mb |
| 20260504140605 | 17 | 92 | 8.0 | 14.5 | 0.00 | 0.03 | 0.00 | 80 | 1015.0 |
| 20260504140105 | 17 | 3 | 11.3 | 19.3 | 0.00 | 0.03 | 0.00 | 81 | 1014.7 |
| 20260504130605 | 17 | 2 | 3.2 | 12.9 | 0.00 | 0.03 | 0.03 | 91 | 1014.9 |
| 20260504130105 | 17 | 17 | 6.4 | 12.9 | 0.00 | 0.03 | 0.03 | 91 | 1014.9 |
| 20260504120106 | 17 | 359 | 0.0 | 0.0 | 0.00 | 0.03 | 0.03 | 88 | 1015.2 |
| 20260504110605 | 18 | 359 | 0.0 | 0.0 | 0.00 | 0.03 | 0.03 | 85 | 1014.7 |
| 20260504110105 | 18 | 359 | 0.0 | 0.0 | 0.00 | 0.03 | 0.03 | 85 | 1014.6 |
| 20260504100605 | 19 | 359 | 0.0 | 0.0 | 0.00 | 0.03 | 0.03 | 85 | 1013.8 |
| 20260504100105 | 19 | 359 | 0.0 | 0.0 | 0.00 | 0.03 | 0.03 | 85 | 1013.8 |
| 20260504090105 | 19 | 359 | 0.0 | 0.0 | 0.00 | 0.03 | 0.03 | 87 | 1013.8 |
| 20260504081605 | 19 | 359 | 0.0 | 0.0 | 0.00 | 0.03 | 0.03 | 86 | 1013.5 |
| 20260504081105 | 19 | 359 | 0.0 | 0.0 | 0.00 | 0.03 | 0.03 | 86 | 1013.6 |
| 20260504080105 | 19 | 359 | 0.0 | 0.0 | 0.00 | 0.03 | 0.03 | 86 | 1013.4 |
| 20260504070105 | 19 | 359 | 0.0 | 3.2 | 0.00 | 0.03 | 0.03 | 85 | 1013.3 |
| 20260504060105 | 20 | 359 | 0.0 | 4.8 | 0.00 | 0.03 | 0.03 | 85 | 1013.1 |
| 20260504050604 | 20 | 359 | 0.0 | 3.2 | 0.00 | 0.03 | 0.03 | 88 | 1013.4 |
| 20260504050104 | 20 | 359 | 0.0 | 0.0 | 0.00 | 0.03 | 0.03 | 88 | 1013.4 |
| 20260504045604 | 19 | 359 | 0.0 | 1.6 | 0.00 | 0.03 | 0.03 | 89 | 1013.4 |
| 20260504044604 | 19 | 359 | 0.0 | 0.0 | 0.00 | 0.03 | 0.03 | 90 | 1013.2 |
| 20260504044104 | 19 | 359 | 0.0 | 0.0 | 0.00 | 0.03 | 0.03 | 90 | 1013.3 |
| 20260504043104 | 18 | 359 | 1.6 | 4.8 | 0.00 | 0.03 | 0.03 | 92 | 1013.4 |
| 20260504042605 | 18 | 359 | 0.0 | 3.2 | 0.00 | 0.03 | 0.03 | 92 | 1013.4 |
| 20260504042105 | 18 | 0 | 1.6 | 12.9 | 0.00 | 0.03 | 0.03 | 93 | 1013.5 |
| 20260504041605 | 18 | 8 | 0.0 | 4.8 | 0.00 | 0.03 | 0.03 | 94 | 1013.6 |
| 20260504041104 | 18 | 1 | 0.0 | 0.0 | 0.00 | 0.03 | 0.03 | 94 | 1013.6 |
| 20260504040604 | 18 | 2 | 0.0 | 1.6 | 0.00 | 0.03 | 0.03 | 94 | 1013.7 |
| 20260504040104 | 18 | 3 | 0.0 | 0.0 | 0.00 | 0.03 | 0.03 | 94 | 1013.6 |
| 20260504035104 | 17 | 3 | 0.0 | 0.0 | 0.00 | 0.03 | 0.03 | 94 | 1013.8 |
| 20260504034605 | 17 | 10 | 0.0 | 0.0 | 0.00 | 0.03 | 0.03 | 94 | 1013.7 |
| 20260504033605 | 17 | 359 | 0.0 | 0.0 | 0.00 | 0.03 | 0.03 | 94 | 1013.8 |
| 20260504033105 | 17 | 6 | 0.0 | 0.0 | 0.00 | 0.03 | 0.03 | 94 | 1014.0 |
| 20260504032605 | 17 | 2 | 0.0 | 0.0 | 0.00 | 0.03 | 0.03 | 94 | 1014.1 |
| 20260504032105 | 17 | 6 | 0.0 | 4.8 | 0.00 | 0.03 | 0.03 | 94 | 1014.2 |
| 20260504031604 | 17 | 27 | 0.0 | 0.0 | 0.00 | 0.03 | 0.03 | 94 | 1014.2 |
| 20260504031104 | 17 | 30 | 0.0 | 1.6 | 0.00 | 0.03 | 0.03 | 94 | 1014.4 |
| 20260504030605 | 17 | 2 | 1.6 | 8.0 | 0.00 | 0.03 | 0.03 | 94 | 1014.5 |
| 20260504030105 | 17 | 359 | 1.6 | 11.3 | 0.00 | 0.03 | 0.03 | 94 | 1014.7 |
| 20260504025605 | 17 | 359 | 1.6 | 8.0 | 0.00 | 0.03 | 0.03 | 94 | 1014.7 |
| 20260504025104 | 17 | 28 | 1.6 | 9.7 | 0.00 | 0.03 | 0.03 | 94 | 1014.7 |
| 20260504024604 | 17 | 51 | 1.6 | 12.9 | 0.00 | 0.03 | 0.03 | 93 | 1014.9 |
| 20260504024104 | 17 | 23 | 0.0 | 4.8 | 0.00 | 0.03 | 0.03 | 93 | 1014.8 |
| 20260504023604 | 17 | 21 | 0.0 | 4.8 | 0.00 | 0.03 | 0.03 | 93 | 1014.9 |
| 20260504023104 | 17 | 22 | 1.6 | 4.8 | 0.00 | 0.03 | 0.03 | 93 | 1015.0 |
| 20260504022604 | 17 | 50 | 0.0 | 1.6 | 0.00 | 0.03 | 0.03 | 93 | 1015.2 |
| 20260504022104 | 17 | 50 | 0.0 | 0.0 | 0.00 | 0.03 | 0.03 | 93 | 1015.5 |
| 20260504021604 | 17 | 50 | 0.0 | 0.0 | 0.00 | 0.03 | 0.03 | 93 | 1015.5 |
| 20260504021104 | 17 | 121 | 0.0 | 1.6 | 0.00 | 0.03 | 0.03 | 93 | 1015.7 |
| 20260504020604 | 17 | 116 | 0.0 | 0.0 | 0.00 | 0.03 | 0.03 | 93 | 1015.7 |
| 20260504020104 | 17 | 122 | 0.0 | 0.0 | 0.00 | 0.03 | 0.03 | 93 | 1016.1 |
| 20260504015604 | 17 | 359 | 0.0 | 0.0 | 0.00 | 0.03 | 0.03 | 93 | 1016.2 |
| 20260504015104 | 17 | 3 | 0.0 | 0.0 | 0.00 | 0.03 | 0.03 | 92 | 1016.2 |
| 20260504014604 | 18 | 5 | 0.0 | 0.0 | 0.00 | 0.03 | 0.03 | 92 | 1016.2 |
| 20260504014104 | 18 | 4 | 0.0 | 0.0 | 0.00 | 0.03 | 0.03 | 92 | 1016.4 |
| 20260504013604 | 18 | 4 | 0.0 | 0.0 | 0.00 | 0.03 | 0.03 | 92 | 1016.4 |
| 20260504013104 | 18 | 4 | 0.0 | 0.0 | 0.00 | 0.03 | 0.03 | 92 | 1016.4 |
| 20260504012604 | 18 | 1 | 0.0 | 0.0 | 0.00 | 0.03 | 0.03 | 92 | 1016.5 |
| 20260504012104 | 18 | 359 | 0.0 | 0.0 | 0.00 | 0.03 | 0.03 | 92 | 1016.4 |
| 20260504011605 | 18 | 359 | 0.0 | 0.0 | 0.00 | 0.03 | 0.03 | 92 | 1016.4 |
| 20260504010605 | 18 | 4 | 0.0 | 0.0 | 0.00 | 0.03 | 0.03 | 92 | 1016.3 |
| 20260504010105 | 18 | 359 | 0.0 | 0.0 | 0.00 | 0.03 | 0.03 | 92 | 1016.5 |
| 20260504005605 | 18 | 359 | 0.0 | 0.0 | 0.00 | 0.03 | 0.03 | 91 | 1016.6 |
| 20260504005104 | 17 | 359 | 0.0 | 0.0 | 0.00 | 0.03 | 0.03 | 91 | 1016.6 |
| 20260504004605 | 17 | 359 | 0.0 | 0.0 | 0.03 | 0.03 | 0.03 | 91 | 1016.6 |
| 20260504004104 | 17 | 359 | 0.0 | 0.0 | 0.03 | 0.03 | 0.03 | 91 | 1016.5 |
| 20260504003604 | 17 | 1 | 0.0 | 0.0 | 0.03 | 0.03 | 0.03 | 91 | 1016.5 |
| 20260504003104 | 17 | 4 | 0.0 | 0.0 | 0.03 | 0.03 | 0.03 | 91 | 1016.5 |
| 20260504002604 | 17 | 4 | 0.0 | 0.0 | 0.03 | 0.03 | 0.03 | 91 | 1016.4 |
| 20260504002104 | 17 | 0 | 0.0 | 0.0 | 0.03 | 0.03 | 0.03 | 90 | 1016.4 |
| 20260504001104 | 17 | 1 | 0.0 | 0.0 | 0.03 | 0.03 | 0.03 | 90 | 1016.6 |
| 20260504000604 | 17 | 359 | 0.0 | 0.0 | 0.03 | 0.03 | 0.03 | 89 | 1016.6 |
| 20260504000105 | 17 | 359 | 0.0 | 0.0 | 0.03 | 0.03 | 0.03 | 89 | 1016.6 |
| 20260503235604 | 17 | 7 | 0.0 | 0.0 | 0.03 | 0.03 | 0.03 | 89 | 1016.6 |
| 20260503234605 | 17 | 8 | 0.0 | 0.0 | 0.00 | 0.00 | 0.00 | 88 | 1016.7 |
| 20260503234104 | 17 | 1 | 0.0 | 3.2 | 0.00 | 0.00 | 0.00 | 88 | 1016.8 |
| 20260503233604 | 18 | 122 | 0.0 | 8.0 | 0.00 | 0.00 | 0.00 | 88 | 1016.9 |
| 20260503233105 | 18 | 359 | 0.0 | 8.0 | 0.00 | 0.00 | 0.00 | 87 | 1016.9 |
| 20260503232604 | 18 | 359 | 1.6 | 8.0 | 0.00 | 0.00 | 0.00 | 88 | 1017.0 |
| 20260503232104 | 18 | 359 | 3.2 | 11.3 | 0.00 | 0.00 | 0.00 | 88 | 1017.0 |
| 20260503231604 | 18 | 359 | 0.0 | 0.0 | 0.00 | 0.00 | 0.00 | 89 | 1016.9 |
| 20260503230604 | 18 | 359 | 0.0 | 4.8 | 0.00 | 0.00 | 0.00 | 90 | 1016.9 |
| 20260503230104 | 18 | 359 | 0.0 | 4.8 | 0.00 | 0.00 | 0.00 | 90 | 1016.8 |
| 20260503225104 | 17 | 359 | 1.6 | 8.0 | 0.00 | 0.00 | 0.00 | 90 | 1016.6 |
| 20260503224604 | 17 | 10 | 0.0 | 1.6 | 0.00 | 0.00 | 0.00 | 91 | 1016.5 |
| 20260503223604 | 17 | 10 | 0.0 | 0.0 | 0.00 | 0.00 | 0.00 | 92 | 1016.3 |
| 20260503223104 | 17 | 10 | 0.0 | 0.0 | 0.00 | 0.00 | 0.00 | 92 | 1016.1 |
| 20260503222104 | 17 | 10 | 0.0 | 0.0 | 0.00 | 0.00 | 0.00 | 92 | 1015.9 |
| 20260503221604 | 17 | 9 | 0.0 | 0.0 | 0.00 | 0.00 | 0.00 | 92 | 1015.9 |
| 20260503221104 | 17 | 10 | 0.0 | 0.0 | 0.00 | 0.00 | 0.00 | 92 | 1015.9 |
| 20260503220604 | 17 | 10 | 0.0 | 0.0 | 0.00 | 0.00 | 0.00 | 92 | 1015.8 |
| 20260503215604 | 17 | 10 | 0.0 | 0.0 | 0.00 | 0.00 | 0.00 | 92 | 1015.9 |
| 20260503214604 | 17 | 10 | 0.0 | 0.0 | 0.00 | 0.00 | 0.00 | 92 | 1016.0 |
| 20260503214104 | 17 | 10 | 0.0 | 0.0 | 0.00 | 0.00 | 0.00 | 92 | 1016.0 |
| 20260503213604 | 17 | 9 | 0.0 | 0.0 | 0.00 | 0.00 | 0.00 | 92 | 1015.8 |
| 20260503213104 | 17 | 10 | 0.0 | 0.0 | 0.00 | 0.00 | 0.00 | 92 | 1015.7 |
| 20260503212104 | 17 | 10 | 0.0 | 0.0 | 0.00 | 0.00 | 0.00 | 92 | 1015.6 |
| 20260503211604 | 17 | 10 | 0.0 | 0.0 | 0.00 | 0.00 | 0.00 | 92 | 1015.5 |
| 20260503211104 | 17 | 10 | 0.0 | 0.0 | 0.00 | 0.00 | 0.00 | 92 | 1015.5 |
| 20260503210604 | 17 | 10 | 0.0 | 0.0 | 0.00 | 0.00 | 0.00 | 92 | 1015.5 |
| 20260503205604 | 17 | 10 | 0.0 | 0.0 | 0.00 | 0.00 | 0.00 | 92 | 1015.4 |
| 20260503204604 | 17 | 9 | 0.0 | 0.0 | 0.00 | 0.00 | 0.00 | 92 | 1015.4 |
| 20260503204104 | 17 | 10 | 0.0 | 0.0 | 0.00 | 0.00 | 0.00 | 92 | 1015.3 |
| 20260503203604 | 17 | 9 | 0.0 | 0.0 | 0.00 | 0.00 | 0.00 | 92 | 1015.2 |
| 20260503203104 | 17 | 10 | 0.0 | 0.0 | 0.00 | 0.00 | 0.00 | 92 | 1015.2 |
| 20260503202604 | 17 | 10 | 0.0 | 0.0 | 0.00 | 0.00 | 0.00 | 92 | 1015.1 |
| 20260503202104 | 16 | 9 | 0.0 | 0.0 | 0.00 | 0.00 | 0.00 | 92 | 1015.1 |
| 20260503201604 | 16 | 10 | 0.0 | 0.0 | 0.00 | 0.00 | 0.00 | 92 | 1015.1 |
| 20260503201104 | 16 | 10 | 0.0 | 0.0 | 0.00 | 0.00 | 0.00 | 92 | 1015.0 |
| 20260503200104 | 16 | 10 | 0.0 | 0.0 | 0.00 | 0.00 | 0.00 | 92 | 1015.0 |
| 20260503195104 | 16 | 10 | 0.0 | 0.0 | 0.00 | 0.00 | 0.00 | 92 | 1014.8 |
| 20260503194604 | 16 | 10 | 0.0 | 0.0 | 0.00 | 0.00 | 0.00 | 92 | 1014.8 |
| 20260503194104 | 16 | 10 | 0.0 | 0.0 | 0.00 | 0.00 | 0.00 | 92 | 1014.7 |
| 20260503193604 | 16 | 10 | 0.0 | 0.0 | 0.00 | 0.00 | 0.00 | 92 | 1014.7 |
| 20260503192604 | 16 | 10 | 0.0 | 0.0 | 0.00 | 0.00 | 0.00 | 92 | 1014.7 |
| 20260503192104 | 16 | 10 | 0.0 | 0.0 | 0.00 | 0.00 | 0.00 | 92 | 1014.7 |
| 20260503191604 | 16 | 10 | 0.0 | 0.0 | 0.00 | 0.00 | 0.00 | 92 | 1014.7 |
| 20260503190604 | 16 | 10 | 0.0 | 0.0 | 0.00 | 0.00 | 0.00 | 92 | 1014.7 |
| 20260503190104 | 16 | 10 | 0.0 | 0.0 | 0.00 | 0.00 | 0.00 | 92 | 1014.7 |
| 20260503184604 | 16 | 10 | 0.0 | 0.0 | 0.00 | 0.00 | 0.00 | 92 | 1014.8 |
| 20260503184104 | 16 | 10 | 0.0 | 0.0 | 0.00 | 0.00 | 0.00 | 92 | 1014.7 |
| 20260503183604 | 16 | 10 | 0.0 | 0.0 | 0.00 | 0.00 | 0.00 | 92 | 1014.8 |
| 20260503183104 | 16 | 10 | 0.0 | 0.0 | 0.00 | 0.00 | 0.00 | 92 | 1014.9 |
| 20260503182604 | 16 | 10 | 0.0 | 0.0 | 0.00 | 0.00 | 0.00 | 92 | 1014.8 |
| 20260503182104 | 16 | 10 | 0.0 | 0.0 | 0.00 | 0.00 | 0.00 | 92 | 1014.8 |
| 20260503181604 | 16 | 10 | 0.0 | 0.0 | 0.00 | 0.00 | 0.00 | 91 | 1014.7 |
| 20260503180104 | 16 | 10 | 0.0 | 0.0 | 0.00 | 0.00 | 0.00 | 91 | 1014.7 |
| 20260503175104 | 16 | 10 | 0.0 | 0.0 | 0.00 | 0.00 | 0.00 | 91 | 1014.8 |
| 20260503174104 | 16 | 10 | 0.0 | 0.0 | 0.00 | 0.00 | 0.00 | 91 | 1014.8 |
| 20260503173604 | 16 | 10 | 0.0 | 0.0 | 0.00 | 0.00 | 0.00 | 91 | 1014.8 |
| 20260503171603 | 16 | 10 | 0.0 | 0.0 | 0.00 | 0.00 | 0.00 | 91 | 1014.9 |
| 20260503171103 | 16 | 10 | 0.0 | 0.0 | 0.00 | 0.00 | 0.00 | 91 | 1015.0 |
| 20260503170604 | 16 | 10 | 0.0 | 0.0 | 0.00 | 0.00 | 0.00 | 91 | 1015.0 |
| 20260503170103 | 16 | 10 | 0.0 | 0.0 | 0.00 | 0.00 | 0.00 | 91 | 1015.1 |
| 20260503160105 | 17 | 10 | 0.0 | 0.0 | 0.00 | 0.00 | 0.00 | 90 | 1015.8 |
| 20260503150605 | 17 | 10 | 0.0 | 0.0 | 0.00 | 0.00 | 0.00 | 89 | 1016.1 |
| 20260503150105 | 17 | 10 | 0.0 | 0.0 | 0.00 | 0.00 | 0.00 | 88 | 1016.1 |